1506114000.88,38786,15.69,73738.8,-2.85,-4.01,-4.05,0,*59
1506114002.1,38787,15.69,73732.0,-2.83,-4.01,-4.05,0,*5E
1506114003.31,38788,15.69,73730.8,-2.83,-3.91,-3.91,0,*55
1506114004.51,38789,15.69,73740.0,-2.83,-3.87,-3.91,0,*53
1506114005.76,38790,15.69,73738.8,-2.83,-4.01,-4.01,0,*5C
1506114006.96,38791,15.69,73740.8,-2.83,-3.87,-3.91,0,*5A
1506114008.15,38792,15.69,73744.8,-2.83,-3.87,-3.79,0,*5F
1506114009.36,38793,15.69,73740.8,-2.83,-3.79,-3.79,0,*5F
1506114010.56,38794,15.69,73754.5,-2.83,-3.79,-3.87,0,*59
1506114011.75,38795,15.69,73750.8,-2.83,-3.87,-3.87,0,*59
1506114012.95,38796,15.69,73754.8,-2.83,-3.87,-3.91,0,*5D
1506114014.18,38797,15.69,73758.3,-2.83,-4.01,-4.13,0,*58
1506114015.37,38798,15.69,73758.5,-2.83,-4.13,-4.17,0,*50
1506114016.56,38799,15.69,73756.5,-2.83,-4.13,-4.25,0,*50
1506114017.75,38800,15.69,73756.3,-2.83,-4.13,-4.17,0,*5E
1506114018.95,38801,15.69,73756.5,-2.83,-4.25,-4.29,0,*57
1506114020.16,38802,15.69,73754.5,-2.83,-4.25,-4.37,0,*5B
1506114021.36,38803,15.69,73754.5,-2.83,-4.25,-4.29,0,*55
1506114022.56,38804,15.69,73752.0,-2.83,-4.25,-4.37,0,*5D
1506114023.76,38805,15.69,73752.0,-2.83,-4.25,-4.29,0,*53
1506114024.99,38806,15.69,73754.0,-2.85,-4.25,-4.37,0,*59
1506114026.19,38807,15.69,73754.3,-2.87,-4.33,-4.41,0,*5C
1506114027.41,38808,15.69,73760.5,-2.85,-4.29,-4.41,0,*5A
1506114028.61,38809,15.69,73754.8,-2.83,-4.37,-4.41,0,*52
1506114029.8,38810,15.69,73752.8,-2.83,-4.37,-4.53,0,*59
1506114030.99,38811,15.69,73756.8,-2.87,-4.41,-4.45,0,*5A
1506114032.22,38812,15.69,73754.3,-2.85,-4.41,-4.41,0,*5F
1506114033.41,38813,15.69,73748.0,-2.87,-4.33,-4.45,0,*5D
1506114034.61,38814,15.69,73750.5,-2.87,-4.33,-4.45,0,*5A
1506114035.81,38815,15.69,73754.0,-2.87,-4.29,-4.45,0,*50
1506114037.02,38816,15.69,73752.3,-2.87,-4.21,-4.29,0,*51
1506114038.21,38817,15.69,73738.3,-2.87,-4.05,-4.09,0,*54
1506114039.43,38818,15.69,73736.3,-2.89,-4.09,-4.17,0,*56
1506114040.62,38819,15.69,73732.0,-2.87,-4.09,-4.17,0,*59
1506114041.83,38820,15.69,73728.8,-2.87,-3.95,-4.09,0,*5E
1506114043.03,38821,15.69,73734.3,-2.87,-3.95,-3.95,0,*5D
1506114044.26,38822,15.69,73742.5,-2.89,-3.95,-3.95,0,*50
1506114045.45,38823,15.69,73744.3,-2.87,-4.05,-4.09,0,*53
1506114046.65,38824,15.69,73740.3,-2.87,-4.05,-4.09,0,*54
1506114047.86,38825,15.69,73742.3,-2.87,-4.09,-4.21,0,*53
1506114049.06,38826,15.69,73742.5,-2.87,-4.17,-4.29,0,*57
1506114050.26,38827,15.69,73736.0,-2.87,-4.09,-4.21,0,*51
1506114051.47,38828,15.69,73728.0,-2.87,-4.09,-4.21,0,*5E
1506114052.67,38829,15.69,73734.0,-2.87,-3.95,-4.17,0,*58
1506114053.9,38830,15.69,73746.3,-2.89,-3.91,-3.91,0,*53
1506114055.1,38831,15.69,73754.5,-2.87,-3.83,-3.91,0,*5F
1506114056.31,38832,15.69,73754.0,-2.87,-3.91,-4.05,0,*55
1506114057.51,38833,15.69,73748.0,-2.87,-4.05,-4.09,0,*52
1506114058.71,38834,15.69,73746.5,-2.87,-4.05,-4.09,0,*55
1506114059.91,38835,15.69,73746.3,-2.87,-3.83,-3.95,0,*5F
1506114061.15,38836,15.69,73748.8,-2.87,-3.71,-3.71,0,*5B
1506114062.4,38837,15.69,73748.3,-2.87,-3.63,-3.71,0,*59
1506114063.66,38838,15.69,73746.5,-2.85,-3.67,-3.67,0,*57
1506114064.91,38839,15.69,73734.5,-2.85,-3.75,-3.67,0,*55
1506114066.15,38840,15.69,73734.0,-2.85,-3.75,-3.75,0,*58
1506114067.37,38841,15.69,73744.0,-2.83,-3.75,-3.67,0,*5C
1506114068.64,38842,15.69,73744.5,-2.85,-3.63,-3.67,0,*5E
1506114069.89,38843,15.69,73742.8,-2.85,-3.63,-3.75,0,*5C
1506114071.13,38844,15.69,73740.3,-2.85,-3.75,-3.79,0,*50
1506114072.35,38845,15.69,73744.5,-2.85,-3.87,-3.91,0,*5A
1506114073.56,38846,15.69,73748.0,-2.83,-3.79,-4.05,0,*54
1506114074.76,38847,15.69,73746.8,-2.83,-3.91,-4.13,0,*54
1506114075.96,38848,15.69,73744.5,-2.83,-4.05,-4.13,0,*51
1506114077.21,38849,15.69,73736.0,-2.85,-4.01,-4.13,0,*52
1506114078.47,38850,15.69,73742.0,-2.85,-4.01,-4.05,0,*5D
1506114079.66,38851,15.69,73744.3,-2.83,-4.05,-4.05,0,*5E
1506114080.92,38852,15.69,73742.0,-2.85,-4.01,-3.91,0,*55
1506114082.16,38853,15.69,73738.8,-2.85,-3.79,-3.91,0,*5C
1506114083.38,38854,15.69,73740.5,-2.83,-3.75,-3.67,0,*58
1506114084.63,38855,15.69,73748.3,-2.85,-3.67,-3.75,0,*5F
1506114085.83,38856,15.69,73750.0,-2.83,-3.75,-3.75,0,*59
1506114087.07,38857,15.69,73750.5,-2.83,-3.67,-3.67,0,*58
1506114088.3,38858,15.69,73752.8,-2.85,-3.75,-3.75,0,*51
1506114089.53,38859,15.69,73754.3,-2.85,-3.79,-3.87,0,*51
1506114090.76,38860,15.69,73748.0,-2.83,-3.79,-4.01,0,*54
1506114091.99,38861,15.69,73756.0,-2.85,-3.79,-3.87,0,*5A
1506114093.21,38862,15.69,73746.0,-2.85,-3.87,-3.87,0,*58
1506114094.44,38863,15.69,73742.5,-2.83,-4.01,-3.91,0,*51
1506114095.67,38864,15.69,73742.3,-2.83,-4.01,-4.05,0,*5C
1506114096.87,38865,15.69,73750.5,-2.83,-3.91,-4.13,0,*54
1506114098.1,38866,15.69,73750.8,-2.83,-4.01,-4.13,0,*59
1506114099.3,38867,15.69,73750.8,-2.83,-4.05,-4.13,0,*5C
1506114100.52,38868,15.69,73746.3,-2.83,-4.01,-4.13,0,*57
1506114101.72,38869,15.69,73750.8,-2.83,-4.05,-4.17,0,*56
1506114102.94,38870,15.69,73746.5,-2.85,-4.13,-4.17,0,*5F
1506114104.16,38871,15.69,73750.8,-2.85,-4.13,-4.17,0,*5E
1506114105.41,38872,15.69,73744.8,-2.85,-4.01,-4.13,0,*5A
1506114106.69,38873,15.69,73744.0,-2.85,-4.01,-4.01,0,*58
1506114107.95,38874,15.69,73732.5,-2.85,-3.91,-4.01,0,*51
1506114109.16,38875,15.69,73744.5,-2.83,-3.91,-3.91,0,*58
1506114110.39,38876,15.69,73748.0,-2.85,-3.79,-3.87,0,*5C
1506114111.59,38877,15.69,73742.0,-2.83,-3.75,-3.79,0,*56
1506114112.86,38878,15.69,73742.5,-2.85,-3.67,-3.67,0,*53
1506114114.05,38879,15.69,73748.0,-2.83,-3.87,-3.87,0,*54
1506114115.25,38880,15.69,73742.0,-2.83,-3.75,-3.87,0,*5F
1506114116.5,38881,15.69,73740.3,-2.85,-3.87,-4.01,0,*5C
1506114117.76,38882,15.69,73746.3,-2.85,-4.01,-4.05,0,*52
1506114118.99,38883,15.69,73752.3,-2.85,-4.13,-4.25,0,*52
1506114120.19,38884,15.69,73746.5,-2.83,-4.25,-4.29,0,*5A
1506114121.42,38885,15.69,73748.0,-2.85,-4.25,-4.29,0,*5D
1506114122.64,38886,15.69,73750.8,-2.85,-4.13,-4.25,0,*57
1506114123.87,38887,15.69,73752.0,-2.85,-4.13,-4.25,0,*56
1506114125.09,38888,15.69,73752.0,-2.85,-4.13,-4.17,0,*58
1506114126.32,38889,15.69,73750.8,-2.85,-4.17,-4.25,0,*5C
1506114127.58,38890,15.69,73748.0,-2.85,-4.01,-4.13,0,*56
1506114128.81,38891,15.69,73748.8,-2.85,-3.91,-4.05,0,*5E
1506114130.04,38892,15.69,73750.3,-2.83,-3.91,-4.01,0,*5F
1506114131.27,38893,15.69,73748.8,-2.85,-3.91,-3.91,0,*56
1506114132.53,38894,15.69,73750.5,-2.85,-4.01,-4.13,0,*52
1506114133.75,38895,15.69,73752.0,-2.85,-4.13,-4.17,0,*54
1506114134.98,38896,15.69,73750.3,-2.85,-4.25,-4.29,0,*5F
1506114136.21,38897,15.69,73746.8,-2.85,-4.25,-4.37,0,*51
1506114137.44,38898,15.69,73742.5,-2.85,-4.17,-4.37,0,*5F
1506114138.64,38899,15.69,73750.3,-2.87,-4.29,-4.33,0,*55
1506114139.85,38900,15.69,73744.3,-2.87,-4.21,-4.21,0,*5F
1506114141.05,38901,15.69,73744.8,-2.87,-4.17,-4.21,0,*5B
1506114142.28,38902,15.69,73746.8,-2.89,-4.29,-4.29,0,*53
1506114143.5,38903,15.69,73746.3,-2.89,-4.17,-4.21,0,*57
1506114144.73,38904,15.69,73744.0,-2.85,-4.13,-4.13,0,*59
1506114145.93,38905,15.69,73740.8,-2.87,-4.17,-4.21,0,*5F
1506114147.15,38906,15.69,73740.3,-2.89,-4.17,-4.33,0,*51
1506114148.35,38907,15.69,73744.3,-2.87,-4.29,-4.29,0,*58
1506114149.58,38908,15.69,73744.0,-2.89,-4.17,-4.21,0,*5C
1506114150.81,38909,15.69,73750.3,-2.89,-4.17,-4.21,0,*5D
1506114152.01,38910,15.69,73746.8,-2.87,-4.17,-4.29,0,*53
1506114153.23,38911,15.69,73740.5,-2.89,-4.21,-4.33,0,*52
1506114154.46,38912,15.69,73742.3,-2.89,-4.09,-4.29,0,*50
1506114155.69,38913,15.69,73740.3,-2.89,-4.21,-4.21,0,*53
1506114156.92,38914,15.69,73740.8,-2.89,-4.21,-4.21,0,*54
1506114158.12,38915,15.69,73738.5,-2.87,-4.17,-4.29,0,*56
1506114159.34,38916,15.69,73730.8,-2.89,-4.09,-4.09,0,*56
1506114160.57,38917,15.69,73736.0,-2.89,-3.95,-4.05,0,*59
1506114161.8,38918,15.69,73742.5,-2.89,-3.91,-3.91,0,*58
1506114163.01,38919,15.69,73734.3,-2.87,-3.91,-4.05,0,*5D
1506114164.23,38920,15.69,73734.8,-2.89,-4.05,-4.17,0,*50
1506114165.42,38921,15.69,73738.8,-2.87,-4.05,-4.17,0,*5F
1506114166.64,38922,15.69,73740.3,-2.89,-4.05,-3.95,0,*5F
1506114167.89,38923,15.69,73730.5,-2.89,-3.71,-3.83,0,*5D
1506114169.15,38924,15.69,73728.8,-2.89,-3.71,-3.71,0,*57
1506114170.39,38925,15.69,73722.8,-2.87,-3.63,-3.63,0,*58
1506114171.64,38926,15.69,73722.8,-2.87,-3.51,-3.55,0,*5F
1506114172.88,38927,15.69,73716.3,-2.87,-3.51,-3.55,0,*5E
1506114174.12,38928,15.69,73724.3,-2.87,-3.55,-3.51,0,*51
1506114175.32,38929,15.69,73746.0,-2.87,-3.39,-3.39,0,*54
1506114176.52,38930,15.69,73740.0,-2.87,-3.39,-3.39,0,*5C
1506114177.76,38931,15.69,73734.0,-2.87,-3.43,-3.51,0,*5E
1506114179.0,38932,15.69,73746.3,-2.83,-3.51,-3.47,0,*5D
1506114180.24,38933,15.69,73748.0,-2.83,-3.51,-3.51,0,*5B
1506114181.48,38934,15.69,73746.3,-2.83,-3.59,-3.63,0,*55
1506114182.75,38935,15.69,73738.8,-2.85,-3.63,-3.67,0,*5F
1506114183.97,38936,15.69,73736.8,-2.83,-3.67,-3.79,0,*51
1506114185.17,38937,15.69,73732.0,-2.83,-3.75,-3.87,0,*52
1506114186.37,38938,15.69,73740.3,-2.83,-3.87,-3.87,0,*50
1506114187.59,38939,15.69,73738.5,-2.83,-3.87,-4.01,0,*58
1506114188.84,38940,15.69,73742.8,-2.85,-3.87,-4.01,0,*50
1506114190.07,38941,15.69,73742.3,-2.85,-4.13,-4.13,0,*58
1506114191.26,38942,15.69,73740.3,-2.83,-4.05,-4.13,0,*5A
1506114192.49,38943,15.69,73742.0,-2.83,-4.01,-4.05,0,*58
1506114193.69,38944,15.69,73740.5,-2.83,-3.91,-3.91,0,*5B
1506114194.93,38945,15.69,73732.8,-2.85,-3.79,-3.91,0,*5A
1506114196.16,38946,15.69,73730.5,-2.85,-3.75,-3.75,0,*5F
1506114197.4,38947,15.69,73736.5,-2.83,-3.67,-3.67,0,*58
1506114198.64,38948,15.69,73742.8,-2.83,-3.67,-3.67,0,*57
1506114199.86,38949,15.69,73746.3,-2.83,-3.63,-3.75,0,*51
1506114201.1,38950,15.69,73746.0,-2.85,-3.75,-3.75,0,*58
1506114202.3,38951,15.69,73738.8,-2.83,-3.75,-3.75,0,*5F
1506114203.57,38952,15.69,73734.5,-2.85,-3.67,-3.67,0,*5A
1506114204.83,38953,15.69,73728.8,-2.85,-3.67,-3.67,0,*5B
1506114206.08,38954,15.69,73728.0,-2.83,-3.59,-3.59,0,*5A
1506114207.32,38955,15.69,73734.5,-2.83,-3.59,-3.63,0,*52
1506114208.56,38956,15.69,73744.8,-2.83,-3.63,-3.59,0,*51
1506114209.83,38957,15.69,73744.5,-2.81,-3.59,-3.63,0,*52
1506114211.09,38958,15.69,73750.3,-2.81,-3.63,-3.71,0,*57
1506114212.33,38959,15.69,73754.8,-2.81,-3.71,-3.83,0,*58
1506114213.56,38960,15.69,73746.8,-2.81,-3.83,-3.83,0,*5F
1506114214.77,38961,15.69,73738.0,-2.81,-3.87,-3.95,0,*5D
1506114216.0,38962,15.69,73734.0,-2.81,-3.95,-4.09,0,*5F
1506114217.19,38963,15.69,73734.3,-2.83,-4.05,-4.13,0,*59
1506114218.39,38964,15.69,73734.0,-2.83,-4.13,-4.13,0,*59
1506114219.59,38965,15.69,73734.8,-2.83,-4.05,-4.13,0,*5F
1506114220.78,38966,15.69,73736.5,-2.83,-4.13,-4.17,0,*5F
1506114221.97,38967,15.69,73738.0,-2.83,-4.17,-4.17,0,*5A
1506114223.19,38968,15.69,73738.3,-2.85,-4.13,-4.25,0,*56
1506114224.39,38969,15.69,73738.3,-2.83,-4.13,-4.25,0,*51
1506114225.62,38970,15.69,73742.0,-2.85,-4.25,-4.37,0,*59
1506114226.85,38971,15.69,73738.8,-2.85,-4.17,-4.29,0,*56
1506114228.08,38972,15.69,73740.5,-2.85,-4.25,-4.29,0,*54
1506114229.31,38973,15.69,73744.0,-2.85,-4.25,-4.29,0,*55
1506114230.53,38974,15.69,73746.8,-2.85,-4.17,-4.29,0,*53
1506114231.75,38975,15.69,73742.3,-2.85,-4.13,-4.17,0,*5B
1506114232.98,38976,15.69,73744.0,-2.85,-4.13,-4.25,0,*59
1506114234.21,38977,15.69,73744.0,-2.85,-4.13,-4.25,0,*58
1506114235.43,38978,15.69,73742.0,-2.85,-4.13,-4.25,0,*57
1506114236.64,38979,15.69,73744.0,-2.87,-4.21,-4.33,0,*52
1506114237.85,38980,15.69,73748.0,-2.87,-4.21,-4.29,0,*5F
1506114239.06,38981,15.69,73752.5,-2.87,-4.21,-4.21,0,*56
1506114240.28,38982,15.69,73750.8,-2.89,-4.17,-4.21,0,*5E
1506114241.52,38983,15.69,73748.3,-2.89,-4.21,-4.29,0,*52
1506114242.74,38984,15.69,73744.8,-2.89,-4.09,-4.29,0,*5F
1506114243.95,38985,15.69,73744.0,-2.87,-4.21,-4.29,0,*5A
1506114245.17,38986,15.69,73744.5,-2.89,-4.29,-4.33,0,*54
1506114246.38,38987,15.69,73750.8,-2.87,-4.21,-4.21,0,*50
1506114247.61,38988,15.69,73752.3,-2.89,-4.09,-4.21,0,*5B
1506114248.83,38989,15.69,73746.3,-2.89,-4.05,-4.09,0,*5C
1506114250.05,38990,15.69,73752.0,-2.89,-4.05,-4.05,0,*58
1506114251.24,38991,15.69,73754.0,-2.87,-4.05,-4.17,0,*54
1506114252.46,38992,15.69,73752.3,-2.89,-4.05,-4.17,0,*59
1506114253.68,38993,15.69,73754.5,-2.89,-4.09,-4.09,0,*5B
1506114254.9,38994,15.69,73748.8,-2.89,-4.05,-4.05,0,*5C
1506114256.13,38995,15.69,73754.5,-2.89,-3.95,-3.95,0,*5D
1506114257.35,38996,15.69,73744.0,-2.89,-3.79,-3.83,0,*5B
1506114258.62,38997,15.69,73740.8,-2.89,-3.71,-3.71,0,*5F
1506114259.88,38998,15.69,73742.8,-2.89,-3.71,-3.71,0,*50
1506114261.11,38999,15.69,73750.8,-2.89,-3.79,-3.91,0,*57
1506114262.33,39000,15.69,73744.0,-2.87,-3.71,-3.83,0,*5A
1506114263.56,39001,15.69,73748.0,-2.85,-3.79,-3.87,0,*55
1506114264.77,39002,15.69,73756.8,-2.87,-3.91,-3.95,0,*51
1506114265.97,39003,15.69,73746.0,-2.87,-3.79,-3.79,0,*54
1506114267.22,39004,15.69,73740.0,-2.87,-3.67,-3.71,0,*54
1506114268.46,39005,15.69,73744.5,-2.87,-3.67,-3.71,0,*55
1506114269.7,39006,15.69,73740.5,-2.87,-3.67,-3.71,0,*56
1506114270.94,39007,15.69,73732.8,-2.87,-3.67,-3.71,0,*57
1506114272.14,39008,15.69,73732.8,-2.87,-3.79,-3.79,0,*5F
1506114273.38,39009,15.69,73736.8,-2.85,-3.79,-3.79,0,*5C
1506114274.63,39010,15.69,73736.3,-2.85,-3.67,-3.79,0,*5B
1506114275.86,39011,15.69,73740.0,-2.85,-3.75,-3.79,0,*59
1506114277.09,39012,15.69,73748.3,-2.85,-3.79,-3.87,0,*57
1506114278.34,39013,15.69,73750.3,-2.85,-3.87,-4.01,0,*5E
1506114279.55,39014,15.69,73752.5,-2.87,-3.95,-4.09,0,*50
1506114280.77,39015,15.69,73752.8,-2.85,-4.05,-4.13,0,*56
1506114282.01,39016,15.69,73744.5,-2.85,-3.91,-4.05,0,*58
1506114283.29,39017,15.69,73752.0,-2.85,-4.01,-4.01,0,*53
1506114284.49,39018,15.69,73754.5,-2.87,-3.95,-4.09,0,*5C
1506114285.72,39019,15.69,73744.8,-2.85,-3.87,-3.91,0,*5A
1506114286.92,39020,15.69,73750.8,-2.87,-3.83,-3.95,0,*52
1506114288.13,39021,15.69,73742.5,-2.87,-3.83,-3.83,0,*54
1506114289.33,39022,15.69,73742.8,-2.87,-3.79,-3.83,0,*52
1506114290.57,39023,15.69,73746.5,-2.87,-3.71,-3.71,0,*56
1506114291.82,39024,15.69,73746.5,-2.85,-3.67,-3.75,0,*50
1506114293.09,39025,15.69,73742.8,-2.85,-3.67,-3.67,0,*52
1506114294.36,39026,15.69,73736.3,-2.85,-3.67,-3.67,0,*51
1506114295.62,39027,15.69,73728.5,-2.85,-3.67,-3.67,0,*50
1506114296.89,39028,15.69,73724.5,-2.85,-3.67,-3.67,0,*5F
1506114298.13,39029,15.69,73734.5,-2.83,-3.59,-3.63,0,*51
1506114299.37,39030,15.69,73736.5,-2.83,-3.59,-3.63,0,*59
1506114300.65,39031,15.69,73732.5,-2.85,-3.59,-3.59,0,*57
1506114301.89,39032,15.69,73734.8,-2.83,-3.59,-3.47,0,*5D
1506114303.11,39033,15.69,73738.0,-2.83,-3.47,-3.35,0,*56
1506114304.33,39034,15.69,73744.5,-2.81,-3.31,-3.35,0,*52
1506114305.55,39035,15.69,73742.5,-2.81,-3.35,-3.35,0,*57
1506114306.77,39036,15.69,73748.3,-2.81,-3.31,-3.31,0,*54
1506114307.98,39037,15.69,73744.5,-2.81,-3.35,-3.31,0,*51
1506114309.18,39038,15.69,73732.0,-2.79,-3.39,-3.39,0,*5D
1506114310.44,39039,15.69,73730.3,-2.81,-3.47,-3.47,0,*5B
1506114311.68,39040,15.69,73726.8,-2.79,-3.43,-3.55,0,*55
1506114312.92,39041,15.69,73738.5,-2.79,-3.47,-3.55,0,*50
1506114314.17,39042,15.69,73742.5,-2.79,-3.51,-3.51,0,*50
1506114315.43,39043,15.69,73738.0,-2.81,-3.55,-3.55,0,*56
1506114316.7,39044,15.69,73754.0,-2.81,-3.59,-3.59,0,*51
1506114317.94,39045,15.69,73756.3,-2.79,-3.55,-3.55,0,*57
1506114319.21,39046,15.69,73752.8,-2.77,-3.55,-3.59,0,*56
1506114320.45,39047,15.69,73756.0,-2.79,-3.67,-3.67,0,*55
1506114321.69,39048,15.69,73744.8,-2.79,-3.67,-3.71,0,*5D
1506114322.93,39049,15.69,73744.3,-2.79,-3.59,-3.71,0,*51
1506114324.18,39050,15.69,73746.8,-2.79,-3.59,-3.59,0,*53
1506114325.43,39051,15.69,73746.5,-2.79,-3.59,-3.59,0,*52
1506114326.67,39052,15.69,73744.8,-2.79,-3.55,-3.55,0,*51
1506114327.93,39053,15.69,73740.3,-2.77,-3.55,-3.55,0,*5E
1506114329.2,39054,15.69,73726.5,-2.77,-3.51,-3.51,0,*59
1506114330.42,39055,15.69,73716.3,-2.79,-3.39,-3.51,0,*58
1506114331.68,39056,15.69,73736.8,-2.77,-3.43,-3.43,0,*5B
1506114332.88,39057,15.69,73750.8,-2.79,-3.39,-3.39,0,*54
1506114334.08,39058,15.69,73746.3,-2.79,-3.39,-3.39,0,*5B
1506114335.34,39059,15.69,73734.8,-2.77,-3.43,-3.55,0,*53
1506114336.61,39060,15.69,73736.0,-2.77,-3.51,-3.55,0,*5A
1506114337.87,39061,15.69,73744.3,-2.77,-3.55,-3.67,0,*5E
1506114339.14,39062,15.69,73740.3,-2.75,-3.51,-3.63,0,*5F
1506114340.39,39063,15.69,73750.8,-2.77,-3.67,-3.79,0,*52
1506114341.62,39064,15.69,73754.3,-2.77,-3.79,-3.91,0,*5C
1506114342.85,39065,15.69,73744.5,-2.77,-3.79,-3.83,0,*5E
1506114344.08,39066,15.69,73740.3,-2.75,-3.87,-3.91,0,*5D
1506114345.31,39067,15.69,73738.8,-2.77,-3.83,-3.91,0,*5A
1506114346.54,39068,15.69,73738.5,-2.77,-3.79,-3.83,0,*53
1506114347.78,39069,15.69,73736.8,-2.77,-3.67,-3.79,0,*58
1506114349.05,39070,15.69,73734.5,-2.77,-3.59,-3.67,0,*52
1506114350.3,39071,15.69,73736.8,-2.79,-3.59,-3.59,0,*50
1506114351.55,39072,15.69,73732.8,-2.79,-3.55,-3.59,0,*5F
1506114352.81,39073,15.69,73734.3,-2.77,-3.51,-3.51,0,*5C
1506114354.08,39074,15.69,73724.8,-2.77,-3.51,-3.55,0,*5F
1506114355.32,39075,15.69,73726.0,-2.77,-3.39,-3.51,0,*54
1506114356.54,39076,15.69,73724.8,-2.77,-3.39,-3.39,0,*59
1506114357.79,39077,15.69,73732.8,-2.77,-3.43,-3.39,0,*55
1506114359.01,39078,15.69,73744.0,-2.77,-3.39,-3.35,0,*5B
1506114360.24,39079,15.69,73734.8,-2.75,-3.39,-3.35,0,*58
1506114361.51,39080,15.69,73718.8,-2.75,-3.47,-3.51,0,*55
1506114362.74,39081,15.69,73734.3,-2.75,-3.39,-3.39,0,*53
1506114363.99,39082,15.69,73750.5,-2.75,-3.39,-3.47,0,*59
1506114365.26,39083,15.69,73732.5,-2.75,-3.51,-3.51,0,*51
1506114366.53,39084,15.69,73724.5,-2.75,-3.51,-3.51,0,*56
1506114367.8,39085,15.69,73724.0,-2.75,-3.51,-3.55,0,*53
1506114369.08,39086,15.69,73734.5,-2.75,-3.51,-3.51,0,*54
1506114370.35,39087,15.69,73724.8,-2.75,-3.47,-3.51,0,*52
1506114371.62,39088,15.69,73718.8,-2.75,-3.51,-3.51,0,*5A
1506114372.9,39089,15.69,73708.5,-2.75,-3.47,-3.51,0,*5C
1506114374.15,39090,15.69,73716.5,-2.75,-3.47,-3.39,0,*5A
1506114375.36,39091,15.69,73724.0,-2.73,-3.35,-3.47,0,*51
1506114376.6,39092,15.69,73722.3,-2.73,-3.47,-3.47,0,*57
1506114377.85,39093,15.69,73740.8,-2.73,-3.51,-3.51,0,*56
1506114379.09,39094,15.69,73738.5,-2.73,-3.51,-3.55,0,*55
1506114380.36,39095,15.69,73732.8,-2.75,-3.51,-3.63,0,*57
1506114381.6,39096,15.69,73736.3,-2.73,-3.67,-3.67,0,*53
1506114382.8,39097,15.69,73730.3,-2.73,-3.75,-3.87,0,*5F
1506114384.01,39098,15.69,73726.0,-2.73,-3.79,-3.79,0,*5D
1506114385.25,39099,15.69,73726.0,-2.73,-3.67,-3.67,0,*5C
1506114386.5,39100,15.69,73730.8,-2.69,-3.63,-3.59,0,*5F
1506114387.74,39101,15.69,73734.5,-2.73,-3.63,-3.63,0,*5C
1506114388.98,39102,15.69,73734.8,-2.73,-3.63,-3.67,0,*5B
1506114390.2,39103,15.69,73736.5,-2.73,-3.67,-3.75,0,*5D
1506114391.41,39104,15.69,73736.5,-2.73,-3.75,-3.79,0,*55
1506114392.63,39105,15.69,73734.3,-2.73,-3.67,-3.75,0,*5B
1506114393.87,39106,15.69,73734.8,-2.73,-3.55,-3.63,0,*5E
1506114395.11,39107,15.69,73734.0,-2.73,-3.55,-3.55,0,*5A
1506114396.38,39108,15.69,73722.3,-2.75,-3.51,-3.51,0,*53
1506114397.63,39109,15.69,73712.0,-2.75,-3.47,-3.39,0,*5B
1506114398.83,39110,15.69,73714.0,-2.73,-3.39,-3.39,0,*5C
1506114400.03,39111,15.69,73720.3,-2.69,-3.31,-3.31,0,*56
1506114401.23,39112,15.69,73726.8,-2.73,-3.27,-3.35,0,*5D
1506114402.43,39113,15.69,73726.5,-2.69,-3.19,-3.31,0,*5E
1506114403.63,39114,15.69,73728.8,-2.69,-3.23,-3.35,0,*54
1506114404.87,39115,15.69,73726.0,-2.73,-3.47,-3.51,0,*5E
1506114406.12,39116,15.69,73714.3,-2.73,-3.47,-3.51,0,*5D
1506114407.36,39117,15.69,73714.5,-2.69,-3.47,-3.47,0,*50
1506114408.61,39118,15.69,73726.5,-2.73,-3.47,-3.51,0,*53
1506114409.85,39119,15.69,73734.5,-2.69,-3.47,-3.47,0,*5E
1506114411.09,39120,15.69,73734.5,-2.73,-3.51,-3.63,0,*5E
1506114412.33,39121,15.69,73728.5,-2.73,-3.51,-3.55,0,*5A
1506114413.58,39122,15.69,73724.8,-2.69,-3.59,-3.63,0,*5F
1506114414.83,39123,15.69,73730.0,-2.69,-3.63,-3.71,0,*54
1506114416.03,39124,15.69,73742.3,-2.73,-3.75,-3.87,0,*56
1506114417.23,39125,15.69,73738.0,-2.73,-3.75,-3.87,0,*57
1506114418.46,39126,15.69,73736.8,-2.69,-3.71,-3.75,0,*56
1506114419.7,39127,15.69,73736.8,-2.73,-3.51,-3.67,0,*5D
1506114420.94,39128,15.69,73736.0,-2.73,-3.55,-3.63,0,*52
1506114422.19,39129,15.69,73740.0,-2.69,-3.51,-3.59,0,*55
1506114423.44,39130,15.69,73736.8,-2.69,-3.59,-3.63,0,*5C
1506114424.69,39131,15.69,73734.5,-2.69,-3.51,-3.47,0,*53
1506114425.93,39132,15.69,73734.5,-2.69,-3.43,-3.47,0,*53
1506114427.18,39133,15.69,73732.5,-2.69,-3.47,-3.51,0,*51
1506114428.42,39134,15.69,73730.8,-2.73,-3.51,-3.55,0,*5E
1506114429.67,39135,15.69,73730.8,-2.69,-3.47,-3.51,0,*57
1506114430.92,39136,15.69,73712.8,-2.69,-3.47,-3.51,0,*54
1506114432.17,39137,15.69,73696.3,-2.69,-3.55,-3.47,0,*51
1506114433.39,39138,15.69,73718.5,-2.69,-3.43,-3.35,0,*5C
1506114434.59,39139,15.69,73720.8,-2.73,-3.35,-3.39,0,*5B
1506114435.8,39140,15.69,73724.5,-2.69,-3.35,-3.35,0,*52
1506114437.05,39141,15.69,73728.0,-2.69,-3.47,-3.43,0,*57
1506114438.29,39142,15.69,73726.3,-2.69,-3.47,-3.47,0,*50
1506114439.54,39143,15.69,73726.0,-2.69,-3.47,-3.47,0,*51
1506114440.79,39144,15.69,73730.8,-2.69,-3.47,-3.47,0,*56
1506114442.06,39145,15.69,73724.5,-2.67,-3.47,-3.51,0,*5E
1506114443.33,39146,15.69,73726.8,-2.67,-3.51,-3.51,0,*5A
1506114444.59,39147,15.69,73730.3,-2.67,-3.43,-3.51,0,*58
1506114445.84,39148,15.69,73728.5,-2.69,-3.47,-3.51,0,*5D
1506114447.09,39149,15.69,73726.0,-2.69,-3.47,-3.51,0,*5C
1506114448.34,39150,15.69,73724.8,-2.69,-3.47,-3.51,0,*54
1506114449.59,39151,15.69,73728.8,-2.69,-3.51,-3.51,0,*52
1506114450.86,39152,15.69,73728.8,-2.67,-3.47,-3.47,0,*5F
1506114452.12,39153,15.69,73728.0,-2.67,-3.43,-3.47,0,*5A
1506114453.37,39154,15.69,73728.0,-2.67,-3.43,-3.39,0,*54
1506114454.64,39155,15.69,73724.8,-2.67,-3.47,-3.47,0,*58
1506114455.9,39156,15.69,73730.0,-2.67,-3.47,-3.47,0,*5B
1506114457.17,39157,15.69,73734.0,-2.67,-3.43,-3.47,0,*5E
1506114458.38,39158,15.69,73732.3,-2.65,-3.39,-3.43,0,*5A
1506114459.65,39159,15.69,73732.3,-2.67,-3.47,-3.47,0,*54
1506114460.92,39160,15.69,73734.3,-2.67,-3.47,-3.47,0,*5E
1506114462.16,39161,15.69,73732.3,-2.65,-3.43,-3.43,0,*5D
1506114463.43,39162,15.69,73732.8,-2.67,-3.43,-3.43,0,*5C
1506114464.7,39163,15.69,73738.0,-2.67,-3.47,-3.47,0,*5D
1506114465.96,39164,15.69,73740.3,-2.67,-3.47,-3.43,0,*5E
1506114467.18,39165,15.69,73732.3,-2.65,-3.39,-3.43,0,*54
1506114468.42,39166,15.69,73730.3,-2.65,-3.43,-3.43,0,*5A
1506114469.69,39167,15.69,73726.8,-2.67,-3.43,-3.43,0,*59
1506114470.91,39168,15.63,73728.5,-2.65,-3.39,-3.43,0,*59
1506114472.11,39169,15.69,73736.3,-2.65,-3.27,-3.39,0,*5A
1506114473.31,39170,15.69,73730.8,-2.65,-3.27,-3.31,0,*5A
1506114474.5,39171,15.69,73740.3,-2.65,-3.31,-3.39,0,*54
1506114475.74,39172,15.69,73740.3,-2.65,-3.43,-3.47,0,*5B
1506114476.98,39173,15.69,73734.0,-2.65,-3.47,-3.47,0,*5E
1506114478.22,39174,15.63,73732.3,-2.65,-3.47,-3.47,0,*59
1506114479.5,39175,15.69,73736.8,-2.67,-3.59,-3.59,0,*5A
1506114480.73,39176,15.69,73738.3,-2.65,-3.55,-3.67,0,*5A
1506114481.97,39177,15.69,73740.3,-2.65,-3.67,-3.67,0,*5A
1506114483.21,39178,15.63,73738.0,-2.65,-3.59,-3.67,0,*58
1506114484.45,39179,15.63,73732.5,-2.65,-3.47,-3.67,0,*56
1506114485.72,39180,15.69,73728.5,-2.67,-3.51,-3.55,0,*54
1506114486.96,39181,15.63,73730.8,-2.65,-3.47,-3.47,0,*53
1506114488.16,39182,15.69,73730.5,-2.65,-3.39,-3.39,0,*50
1506114489.38,39183,15.69,73724.8,-2.65,-3.39,-3.43,0,*5C
1506114490.57,39184,15.63,73734.0,-2.65,-3.39,-3.39,0,*56
1506114491.79,39185,15.63,73746.8,-2.65,-3.39,-3.43,0,*5A
1506114493.01,39186,15.69,73738.0,-2.65,-3.31,-3.43,0,*51
1506114494.28,39187,15.63,73730.3,-2.63,-3.43,-3.47,0,*57
1506114495.54,39188,15.69,73732.3,-2.63,-3.55,-3.67,0,*5D
1506114496.81,39189,15.69,73730.5,-2.63,-3.67,-3.59,0,*50
1506114498.05,39190,15.69,73738.3,-2.65,-3.59,-3.67,0,*5E
1506114499.29,39191,15.69,73734.0,-2.65,-3.59,-3.67,0,*5F
1506114500.52,39192,15.63,73724.8,-2.65,-3.67,-3.79,0,*5E
1506114501.75,39193,15.69,73730.5,-2.65,-3.67,-3.71,0,*57
1506114502.97,39194,15.69,73736.3,-2.65,-3.71,-3.83,0,*5A
1506114504.17,39195,15.69,73742.0,-2.65,-3.91,-3.83,0,*55
1506114505.38,39196,15.69,73742.8,-2.65,-3.79,-3.83,0,*50
1506114506.64,39197,15.69,73734.8,-2.67,-3.59,-3.71,0,*5C
1506114507.88,39198,15.69,73736.8,-2.65,-3.55,-3.71,0,*5D
1506114509.11,39199,15.69,73734.3,-2.67,-3.83,-3.87,0,*5C